Temp
7 7 7 7 7 7 7 7 7 7 7 7 7 7 7 7 7 7 7 7 7 6 6 6 6 6 6 6 6 6 6 6 6 6 5 5 5 6 5 6 6 7 7 7 7 8 8 7 8 9 9 10 11 11 12 12 13 14 16 16 16 18 17 16 17 16 14 12 12 12 12 12 10 10 9 9 9 8 7 6 5 5 5 5 6 8 9 9
7 7 7 7 7 7 7 7 7 7 7 7 7 7 7 7 7 7 7 7 7 6 6 6 6 6 6 6 6 6 6 6 6 6 5 5 5 5 5 5 6 7 7 7 7 7 7 7 8 9 9 10 11 11 12 12 13 14 16 16 16 17 14 14 16 15 13 12 12 12 11 11 11 10 9 8 8 7 7 6 5 5 5 6 7 8 9 9
7 7 7 7 7 7 7 7 7 7 7 7 7 7 7 7 7 7 7 7 6 6 6 6 6 6 6 6 6 6 6 6 6 5 5 6 6 5 5 5 6 6 6 6 7 7 7 7 8 8 9 10 10 11 12 12 13 14 15 17 15 14 13 13 14 14 13 12 11 10 10 9 9 9 9 8 7 6 5 4 5 4 4 5 6 8 9 9
7 7 7 7 7 7 7 7 7 7 7 7 7 7 7 7 7 7 7 7 6 6 6 6 6 6 6 6 6 6 6 6 6 5 5 6 6 6 5 5 5 6 6 6 6 7 7 7 7 8 9 11 10 10 12 12 13 13 14 16 14 13 13 12 13 12 11 11 10 10 9 8 7 8 9 9 9 6 4 3 3 3 3 4 5 7 8 9
7 7 7 7 7 7 7 7 7 7 7 7 7 7 7 7 6 6 6 6 6 6 6 6 6 6 6 6 6 6 6 7 6 5 5 6 6 6 5 5 5 5 6 6 6 6 7 7 7 8 9 11 10 11 12 11 12 12 12 13 12 12 11 10 11 10 10 10 10 10 8 7 7 6 7 8 7 5 3 2 2 3 3 4 5 6 8 9
7 7 7 7 7 7 7 7 7 7 7 7 7 7 7 7 6 6 6 6 6 6 6 6 6 6 6 6 6 6 6 7 5 5 5 5 6 6 5 5 5 5 5 6 6 6 6 7 7 8 10 11 11 12 11 10 12 12 10 11 12 11 10 9 10 9 10 10 9 9 7 7 6 5 4 4 4 3 2 2 2 2 2 3 4 6 8 9
7 7 7 7 7 8 8 7 7 7 7 7 7 7 7 7 7 6 6 6 7 6 6 6 6 6 6 6 6 6 6 6 5 5 6 5 6 6 6 5 5 5 5 5 6 6 6 7 8 9 10 10 10 11 10 10 12 11 10 10 10 10 9 9 9 9 9 8 8 7 7 7 6 5 3 3 2 2 2 2 2 2 3 4 4 5 7 8
8 8 8 8 8 8 8 7 7 7 7 7 7 7 6 7 7 6 6 7 7 7 6 6 6 6 6 6 6 6 5 5 4 5 6 6 6 6 6 5 5 5 5 5 5 5 6 7 7 8 10 10 10 10 11 11 11 10 9 9 9 9 8 8 8 8 7 7 7 7 6 6 5 4 3 2 2 2 2 2 2 2 3 4 4 5 6 6
8 8 8 8 8 8 8 7 7 7 7 7 7 7 6 7 7 6 7 7 7 7 6 6 6 6 6 6 6 6 5 4 4 6 6 6 6 6 5 5 5 5 4 5 5 5 6 7 7 8 9 9 9 10 10 11 11 9 9 9 8 8 8 8 8 8 7 8 7 7 6 5 5 5 4 2 2 2 2 2 2 2 3 3 4 5 6 6
8 8 8 8 8 8 8 8 7 8 7 7 7 7 7 7 7 7 7 7 7 7 7 7 7 6 6 6 6 6 5 4 5 6 6 6 6 5 5 5 5 5 4 5 5 5 6 6 6 7 8 8 9 9 9 11 10 9 9 8 8 8 7 8 8 8 8 8 8 7 6 6 6 6 4 2 1 2 2 2 3 3 3 3 4 5 6 6
8 8 8 8 8 8 8 8 8 8 8 7 7 7 7 7 7 7 7 7 7 7 7 7 7 7 6 6 6 6 5 4 5 6 6 6 6 5 5 5 5 5 4 5 5 5 5 6 6 7 8 9 9 9 9 9 9 8 9 8 8 7 7 8 8 8 8 8 8 7 7 5 5 4 3 2 2 2 2 2 2 3 2 3 4 4 5 5
8 8 8 8 8 8 8 8 8 8 8 8 7 7 7 7 7 7 7 7 7 7 7 7 7 7 6 6 6 5 4 4 5 6 6 5 5 5 5 5 5 5 4 5 5 5 5 6 6 7 8 9 9 9 9 8 9 9 9 8 8 8 7 8 8 9 9 8 8 9 9 5 4 3 3 2 2 2 2 2 2 2 2 3 3 4 5 5
8 8 8 8 8 8 8 8 8 8 8 8 8 7 7 7 7 8 7 7 7 7 7 7 7 7 7 6 5 5 5 4 5 5 5 5 5 5 5 4 4 5 4 4 5 5 5 6 6 6 7 9 9 9 8 9 10 10 10 9 8 8 7 7 8 9 9 8 8 10 10 5 3 4 3 3 2 2 3 2 2 2 2 3 3 4 5 5
9 9 9 8 8 8 8 8 8 8 8 8 8 8 7 7 7 8 8 7 7 8 7 7 7 7 7 6 5 5 5 5 5 5 5 5 5 5 5 4 4 4 4 4 5 5 6 6 6 7 7 8 8 8 9 10 11 10 10 9 9 8 6 7 8 8 8 8 8 10 9 5 3 4 3 3 3 3 3 3 3 3 3 2 3 4 5 6
9 9 9 9 9 9 9 9 9 9 9 9 8 8 8 7 7 8 8 7 7 7 7 7 7 7 7 6 5 5 5 5 5 5 5 5 5 4 4 4 4 4 4 4 5 5 6 6 6 7 7 7 8 9 9 10 10 11 10 9 9 8 6 7 7 7 8 8 9 10 7 4 3 3 3 3 3 3 3 3 3 3 3 3 3 4 5 6
9 9 9 9 9 9 9 9 9 9 9 9 9 8 8 7 7 8 8 7 7 7 7 7 7 7 7 6 5 5 5 5 4 4 5 5 4 4 4 4 4 4 4 5 5 6 6 6 6 6 7 8 9 9 9 9 9 10 10 9 9 8 6 7 7 7 8 8 9 9 7 4 4 4 3 3 3 3 4 4 3 3 3 3 3 4 5 5
9 9 9 9 9 9 9 9 9 10 10 9 9 8 8 8 7 8 7 8 7 7 7 7 7 7 7 6 5 5 4 4 4 4 4 4 4 4 4 4 4 4 5 5 5 6 6 6 6 6 8 9 9 9 9 8 8 9 10 10 9 8 7 7 7 7 8 8 8 8 6 4 4 4 4 3 3 3 4 4 3 3 3 3 3 4 5 6
9 9 9 9 9 9 9 9 9 10 10 9 9 9 8 8 8 8 8 8 8 7 7 7 7 7 6 5 4 4 4 3 3 4 4 4 4 4 4 4 4 4 5 6 6 6 6 6 7 7 7 8 8 9 9 8 9 9 9 9 8 7 7 7 6 6 8 8 7 6 5 4 4 4 4 3 3 3 3 3 3 3 3 3 3 4 5 6
9 9 9 9 9 9 9 9 9 9 10 10 9 9 9 8 8 8 8 8 7 7 6 5 5 5 5 5 3 3 4 3 3 3 4 4 4 4 4 4 4 5 6 6 6 5 6 7 7 7 6 6 7 7 8 9 10 10 9 9 8 6 6 6 5 6 8 7 6 6 5 4 4 4 4 4 4 4 4 3 3 3 3 3 3 4 5 5
9 9 9 9 9 9 9 9 9 9 10 10 9 9 9 8 8 8 8 7 6 5 5 4 4 4 4 4 3 3 4 3 3 3 4 4 4 4 4 5 5 6 6 6 6 5 6 6 6 5 5 5 5 5 6 9 10 10 9 8 7 5 5 5 5 6 7 6 5 6 5 5 4 4 4 4 4 5 4 4 4 3 3 3 3 4 5 5
9 9 9 9 9 9 9 9 9 9 9 9 9 9 9 9 8 8 7 6 5 5 5 4 4 4 4 4 3 3 3 3 4 3 4 4 4 4 5 5 6 6 5 4 5 6 6 6 4 3 3 3 3 4 6 9 9 8 8 7 6 5 4 5 5 6 7 6 4 5 6 5 4 4 5 5 5 5 5 5 5 4 4 3 3 4 5 6
9 9 9 9 9 10 9 9 9 9 9 9 9 9 9 9 9 8 7 7 5 5 5 4 4 4 4 4 4 3 3 3 4 3 4 4 4 5 5 5 6 5 5 5 6 7 6 5 4 2 2 2 3 6 8 8 8 8 7 6 5 5 5 5 5 6 7 6 4 5 6 5 4 5 5 5 5 5 4 4 4 4 4 4 4 4 5 5
9 9 9 9 9 10 10 9 8 8 9 9 9 9 9 9 8 8 8 8 6 5 5 5 4 4 4 4 4 4 3 3 3 3 3 4 4 4 5 6 5 5 6 6 7 6 5 4 3 2 2 4 6 7 8 8 8 8 7 7 5 6 7 6 5 5 6 6 5 6 6 5 5 5 5 5 5 4 3 3 3 3 4 4 4 5 5 5
9 9 9 9 9 9 10 9 8 8 9 9 9 9 9 8 8 8 8 7 6 6 6 6 5 5 4 4 4 4 4 3 3 3 3 4 4 4 4 5 5 5 5 6 6 5 4 3 2 2 4 6 7 7 8 8 8 8 7 7 6 6 7 5 5 6 6 6 6 7 7 6 6 6 6 6 5 4 4 3 4 4 4 4 4 5 5 5
9 9 9 9 9 9 9 9 9 9 8 8 9 9 8 8 8 7 7 7 6 7 7 6 6 5 4 4 4 4 4 4 3 3 4 4 4 4 4 5 5 5 4 5 5 4 4 3 3 4 6 7 7 7 7 8 8 7 6 7 7 6 6 5 6 7 6 6 6 6 7 7 6 6 7 7 6 6 5 4 4 4 4 4 4 5 6 6
9 9 9 9 9 9 9 9 9 9 9 8 8 8 8 8 7 7 7 7 6 7 7 6 6 5 4 4 4 5 5 4 4 3 4 4 4 4 4 5 5 4 4 4 5 3 3 4 4 5 6 7 7 7 6 7 8 7 5 6 7 7 6 6 7 9 8 7 5 6 8 8 7 7 7 7 6 7 6 6 5 4 3 4 4 5 5 5
9 9 9 9 9 9 9 9 9 9 9 9 8 8 7 7 7 7 7 7 6 6 6 6 6 5 5 4 4 4 4 4 4 4 4 4 4 5 5 5 5 5 4 4 4 3 2 4 5 6 6 7 8 7 5 6 8 7 5 6 7 7 7 7 8 9 8 7 6 6 8 9 8 7 6 5 6 6 6 7 6 5 4 4 5 5 5 5
9 9 9 9 9 9 9 9 9 9 9 8 8 8 7 7 7 7 8 6 6 7 6 5 6 5 5 5 4 3 3 3 4 4 4 4 4 5 5 5 5 5 5 5 3 2 2 2 3 4 6 6 5 5 5 6 7 5 5 6 6 6 7 8 9 9 8 8 8 7 8 10 10 7 5 5 6 7 8 8 8 7 6 5 5 5 5 6
9 9 9 9 10 9 9 9 9 9 9 8 8 7 7 7 7 8 8 6 6 7 6 5 6 5 4 5 5 3 2 3 3 4 4 4 4 5 5 5 5 4 4 5 3 2 2 1 2 3 4 5 4 4 5 6 6 6 6 6 6 7 8 9 10 9 9 10 9 7 7 10 11 9 7 6 7 8 10 10 10 8 7 6 6 5 6 6
9 9 9 10 10 10 10 9 9 9 9 9 8 7 7 7 8 8 6 5 6 6 5 5 4 3 3 3 5 4 3 3 2 3 5 4 5 4 4 4 5 5 4 4 3 2 2 1 1 2 2 3 4 5 6 7 7 7 7 7 8 9 10 10 11 10 10 10 8 6 6 8 11 11 10 9 8 9 10 10 9 8 7 7 6 6 6 6
10 9 10 10 10 10 10 10 10 10 9 9 8 7 8 8 7 6 5 5 6 5 4 4 2 2 2 1 3 4 3 3 3 3 4 4 4 4 3 4 5 6 5 4 3 3 3 3 3 3 2 3 5 7 7 7 7 8 9 10 9 10 10 10 10 10 11 9 7 5 5 7 10 11 11 10 8 8 9 10 9 8 7 7 7 7 7 7
10 10 10 10 10 10 10 10 10 10 9 9 8 7 8 8 6 4 4 5 6 4 3 2 2 2 1 1 2 2 3 3 3 2 2 3 3 2 2 1 2 4 5 3 4 4 3 3 3 4 3 3 5 7 7 7 8 9 10 11 9 9 9 9 9 9 10 8 6 5 5 7 10 12 11 10 9 8 8 9 9 9 8 8 8 8 8 7
10 10 10 11 10 10 10 9 9 10 9 9 8 8 9 8 6 3 3 4 4 2 0 0 1 1 1 3 3 2 2 3 3 3 3 3 3 2 2 1 0 4 5 4 5 4 4 4 4 4 4 4 4 6 8 8 9 9 10 10 9 8 8 7 6 7 7 7 5 5 6 8 11 12 10 10 9 8 7 7 7 7 7 7 8 8 7 7
10 10 10 11 11 11 10 10 9 9 9 8 8 9 9 7 4 2 2 3 1 -1 -1 -0 0 1 3 3 3 2 3 3 2 3 3 3 3 2 2 2 1 2 4 4 5 4 4 5 3 3 4 4 3 4 5 6 8 7 7 9 10 9 9 8 7 8 8 7 6 5 6 10 12 10 8 8 6 5 5 5 5 5 5 6 6 6 7 7
11 10 10 11 11 11 11 10 10 10 10 9 8 8 7 5 3 2 2 1 -0 -1 -0 -0 -1 2 4 4 2 2 3 4 3 3 3 3 2 1 1 1 0 0 3 5 5 4 3 3 3 2 2 2 3 3 1 4 8 6 5 8 9 8 7 6 5 5 6 7 7 6 7 10 10 8 6 6 5 5 4 4 4 5 5 5 5 6 6 7
11 11 11 11 11 11 11 11 11 11 10 9 7 5 3 3 2 2 1 1 -0 -1 -1 1 1 3 5 4 3 3 3 4 3 3 3 1 2 1 0 1 0 -1 1 3 5 4 4 4 3 3 3 2 3 2 0 3 7 7 7 8 6 4 5 5 4 3 4 8 8 6 8 10 10 9 6 5 6 5 5 4 4 4 5 4 5 6 6 7
11 11 11 11 11 11 11 11 11 12 11 8 6 3 0 -0 0 -0 -0 -1 -1 -2 -1 3 4 3 4 4 4 3 3 4 3 4 4 2 2 2 0 0 -0 -1 -1 0 4 5 4 5 4 4 5 4 1 1 2 2 4 8 9 6 4 3 4 6 7 6 6 10 8 6 8 10 10 11 8 7 7 7 6 5 4 4 5 5 5 6 7 7
11 11 11 11 11 11 11 11 11 12 11 6 3 1 -1 -1 -1 -2 -2 -2 -2 -2 0 3 4 3 3 3 3 2 2 4 4 2 4 4 3 2 0 0 0 -0 -2 -2 3 4 3 6 5 4 5 4 2 2 5 4 3 5 6 4 4 7 8 8 8 8 9 9 7 7 7 7 9 11 10 9 9 8 7 6 5 6 6 6 6 7 7 7
12 12 11 10 11 11 11 11 11 12 10 5 3 1 -1 -1 -1 -3 -3 -3 -3 -1 1 2 2 3 2 2 2 1 0 2 3 2 3 4 4 2 0 -0 0 1 -1 -1 2 2 3 6 6 5 4 3 4 5 6 6 4 4 5 4 4 5 7 7 6 7 9 8 7 8 8 9 10 10 9 10 9 8 7 6 7 7 6 6 6 7 7 7
12 12 11 10 11 11 10 12 12 10 7 2 1 0 -2 -2 -1 -2 -2 -3 -3 -0 2 1 1 3 2 0 0 0 0 1 1 2 3 3 3 2 -0 -1 -1 -1 -1 -0 0 0 3 7 7 6 5 4 4 3 2 3 3 4 6 6 5 3 3 5 4 2 5 8 8 9 10 11 11 8 8 9 8 7 6 6 6 6 6 6 6 6 7 7
13 12 11 11 11 11 12 11 6 2 1 -1 -1 -2 -3 -2 -1 -2 -2 -2 -2 -1 0 0 1 1 1 1 1 -0 0 1 1 1 2 2 3 3 -0 -1 -2 -2 -0 2 2 1 3 7 6 5 5 4 3 0 -2 -1 0 1 4 5 5 4 4 8 7 1 1 4 6 8 10 12 10 7 7 7 7 6 5 4 5 6 6 6 6 7 7 7
12 12 11 11 11 12 12 7 -2 -4 -1 -1 -2 -2 -2 -2 -1 -2 -2 -2 -2 -1 -1 -0 0 -0 -0 0 0 -1 0 1 1 1 2 2 2 2 0 -1 -2 -3 -1 3 2 -1 1 5 5 3 3 2 1 -2 -4 -3 -2 -1 1 1 1 3 5 10 10 5 2 1 1 4 9 11 9 6 6 6 5 5 4 3 4 5 6 6 6 6 6 7
11 11 11 11 12 12 11 6 -0 -2 -2 -3 -3 -3 -2 -2 -2 -1 -1 -2 -1 -0 0 0 -0 0 -0 -1 -0 -0 1 2 1 1 2 1 1 1 -0 -1 -1 -2 -0 3 2 -0 1 4 5 3 3 2 1 -2 -4 -5 -3 1 2 0 0 2 3 5 6 6 5 3 4 7 10 11 9 4 3 4 3 3 4 3 4 5 6 6 6 7 7 7
11 10 11 11 12 12 11 9 5 1 -2 -3 -2 -2 -2 -2 -2 -1 -1 -2 -1 -0 1 0 -1 0 -0 -2 -1 0 1 2 2 1 1 1 1 1 -0 -1 -1 -1 0 1 1 1 3 4 5 6 6 5 5 3 2 -0 -1 2 2 -0 -0 -0 -0 1 2 4 7 5 4 9 11 11 8 4 3 4 3 4 5 5 5 5 6 6 7 7 7 7
11 11 11 11 12 12 10 7 5 2 -1 -0 1 -0 -0 -0 -1 -0 -1 -1 -2 -2 0 0 -1 -1 -1 -2 -0 0 0 2 3 1 1 1 1 1 -0 -0 -1 -1 -1 -2 -1 1 2 1 3 7 10 9 9 8 7 5 3 2 1 -1 -1 -1 -1 2 4 7 9 4 1 7 12 11 8 6 6 6 4 5 6 5 5 5 6 6 7 7 7 7
11 12 11 10 11 10 7 4 4 4 1 2 3 1 1 2 1 -1 -1 -0 -1 -1 -0 -1 -2 -1 -0 -0 2 2 1 1 2 2 1 1 2 1 0 0 -1 -2 -2 -2 -1 -1 -1 -2 -1 3 7 7 7 5 2 2 4 3 2 1 0 -1 -1 2 6 9 8 3 3 7 8 9 10 8 7 7 5 6 6 6 6 6 6 6 6 6 7 6
11 10 9 9 10 8 6 4 4 3 3 4 5 2 1 2 1 0 0 0 -0 -1 -0 -1 -2 -0 2 2 3 4 2 1 2 2 1 0 1 1 0 0 -0 -1 -2 -2 -1 -1 2 2 -2 -2 1 -0 -1 -1 -3 -1 2 3 3 2 1 -0 -1 2 6 7 5 6 9 7 3 7 11 9 8 8 6 6 6 6 6 6 6 6 6 6 7 6
10 8 6 7 9 7 6 6 3 1 2 3 2 0 2 3 2 2 2 0 0 -0 1 2 -0 -1 -1 -1 2 5 3 3 3 2 1 1 0 1 2 1 -0 -0 -1 -1 -2 -1 4 4 -3 -4 -1 -4 -6 -4 -4 -2 -0 -1 1 2 1 0 0 2 5 4 4 8 9 5 2 6 9 8 8 8 6 6 6 6 6 6 6 6 6 6 7 6
9 8 5 6 6 3 3 4 2 2 1 1 1 1 3 5 3 1 -0 0 2 1 1 4 2 -1 -3 -3 0 4 4 4 5 2 0 0 -0 1 3 2 1 -0 -1 -1 -2 -3 2 2 -5 -6 -1 -3 -6 -5 -5 -4 -1 -1 -0 1 0 0 0 1 3 1 1 4 3 1 1 4 6 7 7 7 6 5 5 6 6 6 6 6 6 6 6 6
10 9 7 6 4 1 1 1 2 4 3 2 4 2 1 4 4 0 -2 1 4 3 2 3 2 -2 -3 -3 -0 3 2 2 3 2 -0 0 0 0 1 1 -0 -0 -1 -1 -2 -2 2 1 -7 -7 2 1 -4 -4 -4 -4 -2 -0 1 -1 -2 -1 -1 -1 -0 -1 0 2 1 -0 1 3 5 5 5 6 6 5 5 6 6 6 6 6 6 6 6 6
11 10 9 9 5 1 2 1 1 5 6 5 6 3 1 4 3 1 -1 -1 1 2 2 2 1 -1 -2 -1 -0 1 -1 -1 0 -0 -2 -1 -0 -1 -1 -2 -2 -1 -1 -2 -2 -1 1 0 -6 -3 7 6 -2 -3 -2 -3 -3 0 3 2 -1 -1 0 0 -0 0 2 3 2 2 4 7 6 4 3 5 5 4 5 5 5 6 7 6 6 6 6 6
10 10 10 10 7 1 1 1 1 5 7 5 3 2 1 3 1 1 3 0 -2 -0 0 0 1 1 1 1 -0 -1 -2 -2 -2 -2 -3 -2 -2 -3 -3 -4 -4 -3 -3 -3 -3 -4 -3 1 0 1 9 8 -0 -3 -2 -1 4 7 7 5 2 -0 1 1 0 0 1 3 4 6 8 8 5 2 4 6 6 5 6 5 5 6 6 6 6 6 6 6
Height
1546 1545 1545 1545 1544 1543 1543 1542 1541 1540 1539 1538 1536 1535 1534 1533 1531 1530 1529 1528 1527 1526 1525 1524 1524 1524 1524 1523 1522 1521 1520 1520 1520 1519 1519 1518 1517 1517 1516 1515 1514 1514 1513 1512 1512 1511 1511 1511 1511 1511 1512 1513 1514 1515 1516 1517 1518 1519 1517 1518 1519 1516 1518 1519 1520 1523 1528 1539 1545 1547 1548 1548 1552 1555 1556 1558 1559 1560 1562 1564 1567 1567 1567 1568 1569 1570 1570 1569
1546 1546 1546 1545 1544 1544 1543 1542 1542 1541 1539 1538 1536 1535 1533 1532 1531 1530 1529 1528 1527 1526 1525 1524 1524 1524 1523 1522 1522 1521 1520 1520 1520 1519 1519 1518 1517 1516 1516 1515 1514 1513 1513 1512 1512 1511 1511 1511 1511 1511 1512 1513 1514 1515 1515 1517 1517 1517 1516 1516 1517 1516 1521 1524 1523 1526 1530 1537 1543 1547 1550 1549 1552 1556 1556 1559 1564 1564 1563 1568 1569 1569 1570 1570 1570 1570 1571 1570
1547 1546 1546 1545 1545 1544 1543 1543 1542 1541 1540 1538 1536 1534 1533 1532 1531 1530 1529 1528 1526 1525 1524 1524 1524 1524 1523 1522 1521 1521 1520 1520 1520 1519 1518 1517 1517 1516 1515 1514 1513 1513 1512 1512 1511 1511 1511 1511 1511 1511 1512 1513 1513 1514 1515 1516 1516 1516 1516 1515 1519 1521 1525 1528 1527 1529 1532 1535 1541 1547 1550 1551 1554 1557 1558 1560 1564 1566 1568 1572 1572 1571 1572 1571 1571 1571 1571 1570
1547 1546 1546 1545 1545 1544 1543 1543 1542 1541 1539 1538 1536 1534 1532 1531 1530 1529 1528 1527 1526 1525 1524 1524 1524 1524 1523 1522 1521 1520 1520 1519 1520 1519 1518 1517 1516 1516 1515 1514 1513 1512 1512 1512 1511 1511 1511 1511 1511 1511 1512 1512 1513 1514 1514 1515 1515 1517 1517 1516 1521 1524 1526 1531 1531 1532 1536 1537 1541 1547 1550 1552 1557 1558 1560 1561 1562 1569 1573 1575 1574 1574 1574 1573 1572 1571 1571 1571
1547 1546 1546 1545 1544 1544 1543 1542 1542 1541 1539 1538 1536 1534 1532 1531 1530 1529 1528 1527 1525 1525 1524 1524 1524 1524 1523 1522 1521 1520 1519 1519 1520 1519 1518 1517 1516 1515 1514 1513 1512 1512 1511 1511 1511 1510 1511 1511 1511 1512 1512 1512 1513 1514 1514 1515 1515 1518 1522 1521 1523 1524 1527 1535 1535 1535 1539 1540 1542 1547 1551 1555 1558 1560 1563 1562 1564 1573 1577 1576 1576 1575 1575 1574 1573 1572 1572 1572
1547 1546 1545 1545 1544 1544 1543 1542 1542 1540 1539 1537 1535 1534 1532 1530 1529 1528 1528 1527 1525 1525 1524 1524 1524 1524 1523 1522 1521 1520 1519 1520 1520 1518 1517 1516 1515 1514 1513 1513 1512 1512 1511 1511 1511 1510 1511 1511 1511 1511 1511 1511 1512 1512 1513 1516 1514 1518 1526 1525 1525 1526 1529 1537 1538 1539 1541 1541 1544 1549 1554 1557 1558 1563 1568 1567 1570 1577 1577 1577 1576 1575 1575 1574 1573 1573 1573 1572
1546 1546 1545 1544 1544 1543 1542 1542 1541 1540 1539 1537 1535 1534 1532 1530 1529 1528 1528 1527 1526 1525 1525 1525 1524 1524 1524 1523 1522 1521 1520 1521 1520 1517 1516 1515 1514 1513 1512 1512 1511 1511 1511 1511 1511 1510 1511 1511 1511 1511 1511 1511 1512 1512 1514 1516 1515 1517 1526 1528 1529 1529 1531 1538 1540 1541 1543 1543 1547 1550 1555 1559 1559 1565 1571 1572 1576 1578 1578 1578 1577 1576 1575 1574 1574 1573 1573 1573
1546 1545 1545 1544 1543 1542 1542 1541 1541 1540 1539 1537 1536 1534 1532 1531 1529 1528 1527 1527 1526 1526 1525 1525 1525 1524 1524 1523 1522 1521 1521 1521 1519 1516 1515 1514 1513 1512 1512 1511 1511 1511 1511 1511 1511 1510 1511 1511 1511 1511 1511 1511 1511 1513 1514 1516 1518 1520 1526 1530 1532 1533 1536 1540 1542 1544 1545 1547 1550 1551 1557 1562 1563 1567 1571 1576 1579 1579 1579 1578 1577 1577 1576 1575 1575 1574 1573 1573
1545 1545 1544 1543 1542 1542 1541 1541 1540 1540 1538 1537 1536 1534 1532 1531 1530 1528 1527 1527 1526 1526 1526 1525 1525 1524 1524 1523 1522 1521 1521 1521 1518 1516 1515 1513 1512 1512 1512 1511 1511 1511 1511 1511 1511 1511 1511 1511 1511 1511 1511 1511 1512 1514 1513 1514 1519 1523 1527 1531 1533 1537 1540 1542 1544 1546 1548 1550 1550 1551 1560 1567 1566 1568 1574 1580 1581 1580 1581 1579 1578 1578 1577 1577 1576 1575 1574 1574
1545 1544 1543 1542 1541 1541 1540 1540 1540 1539 1538 1537 1536 1534 1533 1531 1530 1529 1527 1527 1526 1526 1525 1525 1525 1524 1524 1523 1521 1521 1522 1520 1518 1516 1514 1513 1513 1512 1511 1511 1511 1511 1511 1511 1511 1511 1511 1511 1511 1511 1511 1512 1513 1514 1514 1514 1519 1524 1527 1532 1535 1539 1544 1544 1546 1548 1550 1554 1552 1551 1562 1569 1567 1569 1577 1583 1582 1581 1582 1581 1580 1579 1578 1578 1577 1576 1576 1576
1544 1543 1542 1541 1541 1540 1540 1539 1539 1539 1538 1537 1536 1535 1533 1532 1530 1529 1528 1527 1526 1525 1525 1525 1525 1524 1524 1523 1522 1522 1522 1520 1517 1515 1514 1514 1513 1512 1511 1511 1511 1511 1511 1511 1511 1511 1511 1511 1511 1512 1511 1512 1514 1516 1517 1517 1520 1525 1526 1533 1540 1542 1547 1549 1549 1550 1550 1555 1556 1551 1560 1569 1569 1573 1581 1584 1583 1583 1583 1582 1581 1580 1580 1579 1578 1578 1577 1577
1544 1543 1542 1541 1540 1539 1539 1538 1538 1538 1537 1537 1536 1535 1533 1532 1530 1529 1528 1526 1525 1525 1524 1524 1524 1524 1523 1523 1523 1523 1522 1519 1517 1515 1514 1514 1513 1513 1512 1511 1511 1511 1512 1511 1511 1511 1511 1512 1512 1512 1511 1512 1514 1516 1521 1522 1522 1525 1524 1532 1544 1544 1548 1553 1552 1553 1552 1555 1558 1552 1558 1572 1577 1581 1585 1585 1585 1584 1583 1583 1582 1581 1581 1580 1580 1579 1578 1578
1544 1542 1541 1540 1539 1539 1538 1538 1537 1537 1537 1537 1536 1535 1534 1532 1530 1529 1528 1527 1525 1524 1524 1524 1524 1524 1523 1523 1524 1523 1522 1519 1517 1515 1514 1514 1513 1513 1512 1512 1512 1511 1512 1511 1512 1512 1512 1512 1512 1512 1511 1512 1514 1515 1522 1524 1523 1526 1526 1531 1542 1546 1552 1556 1554 1555 1554 1555 1557 1552 1560 1579 1585 1585 1586 1586 1586 1585 1584 1584 1583 1582 1583 1582 1581 1580 1579 1579
1543 1542 1541 1540 1539 1538 1537 1537 1536 1536 1536 1536 1536 1535 1534 1533 1530 1528 1528 1527 1525 1524 1524 1524 1524 1524 1523 1524 1524 1523 1522 1519 1517 1515 1514 1514 1513 1513 1513 1512 1512 1512 1512 1512 1512 1512 1512 1513 1512 1513 1512 1513 1514 1516 1521 1524 1523 1525 1530 1534 1538 1545 1557 1558 1555 1556 1556 1556 1556 1553 1564 1582 1587 1586 1587 1586 1586 1586 1585 1585 1584 1584 1583 1583 1582 1581 1581 1580
1543 1541 1540 1539 1538 1537 1537 1536 1535 1535 1535 1536 1536 1536 1535 1533 1531 1528 1527 1527 1526 1525 1524 1524 1524 1524 1524 1524 1524 1523 1521 1518 1517 1515 1514 1514 1514 1514 1513 1513 1512 1512 1512 1512 1513 1513 1513 1513 1513 1513 1514 1515 1515 1516 1519 1523 1524 1523 1529 1538 1538 1545 1558 1558 1556 1557 1556 1557 1556 1554 1568 1584 1586 1586 1587 1586 1587 1586 1586 1586 1585 1585 1584 1584 1583 1582 1582 1581
1543 1541 1539 1538 1537 1536 1536 1535 1535 1534 1535 1535 1536 1536 1535 1534 1531 1528 1527 1527 1526 1525 1524 1524 1523 1523 1524 1525 1525 1522 1520 1518 1516 1515 1515 1514 1514 1514 1513 1513 1513 1513 1513 1513 1513 1513 1513 1514 1514 1514 1515 1516 1514 1515 1518 1524 1527 1524 1525 1534 1539 1545 1556 1558 1558 1559 1556 1557 1557 1556 1569 1584 1585 1586 1588 1587 1587 1587 1586 1587 1586 1585 1585 1584 1584 1583 1583 1582
1543 1540 1539 1538 1536 1536 1535 1534 1534 1534 1534 1534 1535 1535 1535 1535 1533 1529 1528 1527 1526 1526 1525 1524 1523 1522 1523 1525 1524 1522 1520 1519 1517 1516 1515 1514 1514 1514 1514 1514 1513 1513 1513 1513 1514 1514 1514 1515 1515 1516 1516 1516 1515 1514 1518 1524 1526 1525 1526 1532 1540 1545 1551 1556 1559 1560 1558 1559 1561 1561 1569 1581 1584 1586 1587 1587 1587 1587 1587 1587 1586 1586 1585 1585 1585 1584 1583 1583
1542 1540 1538 1537 1536 1535 1535 1534 1534 1534 1534 1534 1534 1535 1535 1535 1534 1532 1529 1528 1526 1524 1523 1523 1522 1523 1525 1525 1525 1523 1521 1520 1518 1517 1516 1515 1515 1514 1514 1514 1514 1514 1514 1514 1515 1515 1515 1516 1515 1517 1518 1518 1517 1515 1516 1519 1517 1519 1525 1531 1540 1547 1551 1556 1560 1562 1559 1559 1564 1566 1573 1582 1585 1586 1587 1588 1587 1587 1587 1587 1587 1587 1586 1586 1586 1584 1584 1583
1543 1540 1538 1537 1536 1535 1534 1534 1533 1533 1533 1533 1534 1534 1535 1535 1534 1532 1530 1528 1526 1526 1528 1529 1527 1529 1530 1529 1527 1524 1522 1521 1519 1517 1517 1516 1515 1515 1515 1515 1515 1515 1515 1514 1516 1516 1516 1516 1517 1518 1521 1522 1520 1519 1519 1515 1513 1516 1523 1528 1539 1550 1557 1561 1562 1564 1561 1561 1568 1569 1574 1582 1585 1586 1587 1588 1588 1588 1588 1588 1588 1587 1587 1587 1586 1585 1585 1584
1543 1541 1539 1537 1535 1534 1534 1533 1533 1532 1532 1533 1533 1534 1534 1535 1534 1534 1533 1531 1531 1533 1535 1535 1534 1534 1533 1531 1528 1525 1522 1522 1520 1518 1517 1517 1516 1516 1516 1516 1516 1516 1516 1515 1516 1517 1515 1517 1521 1522 1524 1525 1524 1525 1523 1517 1516 1521 1527 1534 1543 1552 1561 1564 1564 1565 1561 1564 1574 1575 1576 1582 1585 1587 1588 1588 1589 1588 1589 1589 1588 1588 1587 1588 1587 1586 1586 1585
1543 1541 1539 1537 1535 1534 1533 1533 1532 1532 1532 1532 1533 1533 1534 1534 1533 1534 1534 1534 1535 1535 1535 1535 1535 1534 1532 1531 1528 1526 1524 1522 1520 1519 1518 1517 1517 1516 1517 1517 1516 1517 1518 1518 1518 1518 1516 1520 1527 1529 1529 1529 1528 1526 1522 1519 1522 1526 1532 1541 1549 1556 1564 1566 1564 1565 1563 1566 1579 1580 1578 1584 1586 1587 1588 1588 1588 1588 1589 1589 1588 1588 1588 1588 1588 1587 1586 1585
1543 1541 1539 1538 1536 1534 1532 1532 1531 1531 1531 1531 1532 1533 1533 1533 1533 1533 1534 1535 1536 1535 1535 1535 1534 1533 1531 1529 1528 1527 1525 1522 1521 1520 1518 1518 1517 1517 1518 1517 1517 1519 1520 1518 1517 1517 1519 1525 1531 1532 1531 1530 1529 1525 1522 1523 1527 1531 1538 1545 1554 1559 1562 1566 1567 1566 1564 1567 1579 1582 1580 1585 1587 1587 1589 1588 1588 1588 1588 1589 1588 1588 1588 1588 1588 1586 1586 1586
1543 1541 1539 1538 1536 1534 1532 1531 1531 1530 1530 1531 1531 1532 1532 1533 1533 1533 1533 1534 1535 1535 1535 1535 1534 1532 1530 1529 1529 1527 1525 1524 1523 1521 1520 1519 1519 1519 1519 1518 1519 1520 1520 1519 1517 1519 1525 1530 1533 1533 1532 1530 1528 1526 1524 1526 1531 1536 1541 1547 1555 1558 1556 1563 1570 1569 1566 1568 1577 1580 1580 1585 1588 1588 1588 1588 1588 1588 1588 1588 1587 1587 1587 1587 1587 1586 1586 1585
1543 1541 1539 1537 1536 1534 1532 1531 1530 1530 1530 1530 1531 1531 1532 1532 1532 1533 1533 1533 1535 1535 1535 1535 1534 1533 1531 1530 1530 1528 1527 1526 1525 1524 1522 1521 1521 1521 1521 1521 1521 1522 1523 1522 1521 1525 1531 1534 1534 1533 1532 1528 1527 1529 1527 1528 1536 1541 1544 1547 1553 1556 1556 1563 1570 1569 1569 1574 1577 1577 1580 1586 1587 1587 1587 1587 1588 1588 1587 1588 1587 1586 1586 1586 1586 1586 1585 1585
1542 1540 1539 1537 1536 1534 1532 1531 1530 1529 1530 1530 1530 1531 1531 1531 1532 1532 1532 1533 1535 1536 1535 1535 1535 1534 1533 1532 1530 1529 1528 1527 1528 1527 1524 1524 1523 1523 1523 1522 1523 1526 1527 1525 1524 1529 1534 1535 1533 1532 1531 1529 1529 1532 1531 1530 1537 1546 1551 1550 1550 1555 1559 1564 1565 1564 1570 1579 1581 1579 1580 1584 1587 1586 1585 1585 1586 1586 1586 1586 1586 1585 1585 1585 1585 1585 1585 1584
1542 1540 1538 1536 1535 1533 1532 1531 1530 1530 1530 1530 1530 1530 1531 1531 1531 1531 1532 1534 1535 1537 1536 1535 1535 1536 1535 1533 1530 1528 1527 1528 1530 1529 1526 1525 1524 1523 1524 1524 1525 1528 1529 1527 1528 1536 1540 1537 1534 1533 1532 1532 1530 1533 1536 1534 1534 1546 1555 1553 1550 1552 1558 1563 1561 1558 1566 1577 1582 1581 1576 1578 1585 1584 1582 1584 1585 1584 1585 1584 1584 1584 1583 1584 1584 1584 1584 1583
1542 1540 1538 1536 1534 1532 1531 1531 1530 1530 1529 1530 1530 1530 1531 1531 1531 1531 1530 1534 1539 1540 1540 1538 1539 1540 1538 1536 1531 1528 1531 1532 1530 1530 1528 1526 1526 1524 1525 1526 1527 1529 1530 1529 1534 1543 1545 1539 1536 1535 1534 1534 1533 1535 1540 1535 1533 1547 1557 1555 1553 1552 1555 1560 1557 1557 1566 1575 1579 1579 1572 1572 1579 1582 1582 1586 1586 1584 1583 1581 1581 1581 1582 1583 1582 1583 1583 1583
1542 1540 1538 1536 1534 1532 1531 1530 1530 1530 1529 1530 1530 1530 1531 1530 1531 1531 1530 1541 1550 1546 1545 1544 1542 1542 1541 1539 1535 1533 1536 1535 1532 1533 1531 1528 1528 1526 1527 1529 1529 1530 1530 1530 1540 1550 1547 1544 1543 1540 1536 1538 1541 1543 1543 1537 1539 1553 1557 1555 1557 1556 1556 1556 1554 1559 1566 1569 1573 1577 1573 1568 1572 1580 1584 1586 1585 1581 1577 1575 1576 1579 1580 1581 1581 1581 1582 1582
1542 1541 1538 1536 1534 1532 1530 1529 1529 1529 1529 1530 1530 1530 1530 1529 1531 1530 1532 1548 1556 1549 1548 1547 1545 1545 1544 1541 1539 1539 1539 1537 1536 1538 1534 1531 1531 1528 1530 1533 1531 1533 1534 1534 1543 1551 1548 1548 1548 1543 1542 1545 1548 1548 1544 1539 1543 1554 1557 1557 1560 1558 1556 1553 1553 1560 1563 1563 1573 1581 1579 1569 1565 1573 1580 1583 1581 1575 1570 1571 1573 1576 1578 1579 1580 1580 1580 1581
1543 1541 1539 1536 1535 1532 1531 1529 1529 1529 1529 1530 1531 1530 1530 1531 1531 1534 1545 1556 1556 1552 1552 1550 1549 1550 1547 1544 1541 1541 1541 1540 1540 1539 1535 1535 1535 1532 1533 1535 1533 1535 1539 1540 1546 1551 1551 1550 1548 1547 1550 1551 1549 1548 1546 1543 1543 1552 1556 1556 1557 1554 1553 1553 1555 1560 1561 1565 1578 1587 1586 1576 1565 1565 1569 1572 1573 1569 1567 1570 1572 1574 1576 1577 1578 1579 1579 1579
1544 1542 1539 1537 1535 1533 1531 1530 1529 1530 1529 1530 1531 1530 1531 1532 1535 1547 1560 1561 1555 1555 1555 1553 1555 1554 1552 1552 1548 1545 1544 1544 1544 1542 1540 1540 1539 1537 1536 1538 1537 1536 1540 1546 1549 1551 1551 1549 1550 1552 1553 1552 1549 1548 1551 1549 1547 1551 1551 1549 1552 1554 1555 1559 1561 1561 1562 1569 1583 1589 1590 1584 1570 1562 1563 1565 1567 1568 1568 1568 1570 1572 1573 1575 1576 1576 1577 1577
1544 1542 1541 1538 1537 1535 1533 1532 1531 1530 1530 1530 1530 1531 1531 1532 1544 1561 1566 1559 1556 1559 1561 1561 1559 1557 1556 1555 1553 1551 1549 1548 1547 1546 1547 1546 1544 1546 1547 1549 1548 1542 1546 1552 1551 1551 1553 1553 1554 1553 1553 1554 1551 1550 1553 1553 1550 1550 1548 1546 1554 1560 1562 1567 1571 1569 1568 1575 1587 1590 1590 1584 1568 1559 1562 1564 1565 1568 1569 1568 1569 1570 1570 1572 1573 1573 1574 1575
1545 1544 1541 1539 1538 1536 1534 1533 1532 1531 1531 1530 1531 1532 1530 1535 1555 1572 1569 1561 1562 1565 1568 1566 1562 1561 1558 1553 1553 1554 1552 1551 1551 1548 1550 1548 1546 1550 1550 1552 1552 1545 1546 1552 1550 1552 1556 1555 1555 1555 1555 1556 1555 1553 1552 1554 1552 1550 1549 1549 1554 1562 1568 1577 1585 1583 1578 1580 1589 1593 1590 1578 1563 1558 1561 1563 1565 1567 1568 1569 1569 1569 1570 1570 1571 1571 1572 1573
1546 1544 1543 1541 1539 1538 1536 1534 1533 1532 1532 1531 1531 1531 1532 1544 1566 1575 1571 1569 1571 1570 1569 1568 1565 1561 1557 1555 1557 1556 1552 1552 1553 1551 1549 1547 1549 1554 1553 1553 1555 1551 1548 1549 1551 1556 1560 1561 1564 1565 1562 1560 1560 1558 1557 1558 1555 1557 1559 1553 1552 1558 1561 1571 1579 1575 1575 1581 1588 1594 1587 1569 1560 1562 1564 1565 1567 1568 1568 1569 1568 1568 1569 1569 1570 1571 1571 1572
1546 1545 1544 1542 1540 1539 1538 1536 1534 1533 1532 1532 1533 1536 1544 1559 1572 1574 1573 1574 1574 1572 1570 1568 1568 1561 1555 1557 1559 1558 1555 1552 1553 1553 1552 1553 1557 1562 1563 1559 1560 1560 1553 1548 1553 1561 1566 1571 1571 1569 1568 1566 1564 1564 1564 1562 1557 1561 1563 1555 1556 1562 1565 1577 1586 1583 1582 1580 1582 1587 1579 1565 1562 1565 1566 1567 1568 1568 1568 1568 1568 1568 1569 1569 1569 1570 1571 1571
1547 1546 1545 1543 1542 1540 1539 1538 1537 1536 1536 1533 1536 1549 1563 1571 1574 1574 1575 1575 1575 1576 1572 1566 1565 1560 1557 1557 1558 1558 1557 1555 1555 1554 1556 1561 1562 1565 1568 1566 1565 1566 1560 1555 1557 1560 1566 1573 1572 1569 1569 1568 1566 1566 1567 1563 1559 1560 1560 1561 1568 1572 1573 1579 1589 1598 1591 1573 1575 1584 1572 1562 1563 1563 1566 1569 1566 1567 1567 1567 1568 1568 1568 1569 1569 1569 1570 1570
1547 1547 1545 1544 1543 1541 1541 1540 1539 1539 1537 1532 1541 1564 1578 1578 1577 1577 1578 1577 1577 1578 1573 1564 1562 1563 1564 1562 1560 1559 1558 1555 1556 1555 1556 1561 1563 1567 1571 1569 1568 1569 1567 1564 1560 1559 1562 1569 1572 1570 1568 1568 1569 1568 1567 1567 1564 1559 1558 1568 1574 1575 1575 1570 1572 1585 1580 1564 1574 1586 1575 1566 1563 1559 1562 1566 1564 1564 1566 1566 1567 1567 1567 1568 1567 1567 1568 1569
1548 1547 1546 1545 1544 1543 1542 1540 1540 1542 1537 1538 1557 1576 1581 1579 1578 1579 1579 1578 1578 1578 1573 1567 1565 1567 1568 1566 1565 1567 1563 1557 1559 1563 1560 1559 1564 1571 1573 1571 1570 1569 1570 1567 1562 1561 1562 1564 1571 1573 1570 1571 1571 1568 1566 1567 1567 1563 1564 1573 1571 1565 1564 1562 1566 1572 1568 1569 1579 1581 1579 1575 1565 1559 1560 1561 1563 1563 1565 1566 1565 1565 1566 1565 1566 1566 1567 1568
1548 1547 1546 1546 1545 1544 1543 1541 1542 1540 1536 1548 1569 1577 1579 1581 1579 1579 1580 1579 1579 1577 1573 1571 1570 1569 1570 1571 1570 1572 1570 1566 1566 1568 1565 1564 1568 1573 1575 1575 1572 1570 1571 1569 1565 1567 1563 1559 1565 1572 1570 1571 1570 1568 1570 1571 1571 1569 1568 1573 1574 1570 1567 1568 1577 1573 1563 1572 1580 1573 1573 1568 1560 1562 1562 1560 1563 1563 1564 1565 1564 1564 1565 1565 1565 1566 1566 1567
1548 1547 1547 1547 1546 1546 1546 1544 1542 1540 1545 1563 1576 1577 1580 1582 1578 1579 1580 1578 1579 1577 1574 1575 1574 1571 1573 1576 1575 1575 1574 1573 1572 1570 1570 1572 1572 1573 1576 1577 1574 1571 1570 1569 1568 1569 1563 1555 1561 1568 1567 1568 1573 1578 1583 1582 1579 1574 1569 1569 1573 1580 1581 1577 1586 1592 1578 1571 1571 1567 1565 1560 1557 1563 1564 1561 1563 1564 1565 1565 1564 1564 1564 1563 1564 1564 1564 1564
1547 1548 1549 1548 1547 1547 1546 1546 1549 1554 1564 1575 1578 1579 1582 1581 1578 1580 1579 1578 1579 1578 1577 1578 1576 1576 1577 1576 1577 1578 1576 1575 1576 1575 1574 1575 1573 1573 1577 1577 1576 1574 1569 1567 1567 1568 1564 1559 1564 1571 1571 1575 1583 1590 1594 1592 1589 1585 1579 1576 1575 1579 1578 1565 1573 1600 1601 1585 1579 1573 1562 1557 1560 1563 1563 1563 1564 1564 1565 1564 1562 1563 1562 1562 1563 1562 1562 1562
1547 1549 1550 1549 1548 1548 1546 1552 1562 1567 1572 1577 1578 1580 1582 1580 1580 1580 1579 1579 1579 1578 1579 1579 1578 1580 1581 1579 1579 1580 1578 1577 1579 1578 1576 1578 1577 1576 1578 1577 1577 1576 1571 1569 1570 1572 1571 1567 1572 1582 1585 1587 1590 1593 1594 1592 1593 1591 1585 1586 1585 1581 1574 1559 1559 1582 1597 1600 1601 1588 1568 1558 1560 1563 1564 1564 1565 1564 1564 1564 1562 1562 1561 1561 1562 1561 1561 1561
1549 1550 1551 1550 1550 1548 1548 1557 1569 1573 1575 1579 1580 1580 1581 1580 1581 1580 1580 1580 1579 1579 1579 1579 1580 1580 1580 1582 1581 1581 1579 1578 1580 1580 1579 1581 1580 1578 1580 1578 1576 1576 1574 1572 1572 1574 1573 1570 1576 1585 1588 1588 1590 1594 1595 1594 1594 1589 1584 1588 1588 1582 1579 1573 1569 1573 1581 1590 1590 1575 1564 1558 1557 1564 1565 1563 1565 1564 1563 1564 1563 1562 1561 1561 1561 1560 1560 1559
1550 1551 1551 1550 1550 1549 1549 1555 1566 1574 1579 1580 1580 1580 1581 1581 1581 1580 1580 1580 1580 1580 1579 1580 1582 1580 1581 1583 1581 1581 1580 1577 1579 1582 1581 1582 1580 1579 1580 1578 1576 1577 1575 1574 1575 1572 1570 1572 1573 1573 1575 1577 1579 1582 1584 1587 1590 1586 1585 1590 1589 1588 1590 1585 1584 1578 1572 1583 1585 1565 1556 1557 1558 1564 1565 1563 1565 1564 1563 1564 1563 1562 1561 1560 1560 1560 1559 1558
1551 1551 1552 1551 1550 1550 1552 1556 1561 1570 1577 1578 1578 1580 1580 1580 1581 1581 1581 1581 1581 1581 1580 1581 1582 1581 1583 1583 1581 1582 1581 1577 1578 1581 1582 1582 1580 1580 1580 1578 1579 1578 1576 1577 1577 1573 1575 1581 1576 1563 1558 1559 1560 1564 1568 1575 1583 1585 1588 1592 1590 1592 1591 1582 1579 1570 1563 1586 1597 1571 1553 1555 1559 1563 1563 1563 1565 1563 1563 1563 1562 1562 1561 1559 1560 1559 1558 1558
1552 1552 1553 1554 1553 1553 1557 1561 1561 1565 1572 1574 1574 1579 1580 1579 1581 1581 1581 1581 1581 1581 1581 1582 1582 1582 1582 1582 1580 1581 1581 1580 1580 1581 1583 1582 1580 1580 1581 1579 1579 1578 1578 1578 1576 1577 1582 1589 1589 1577 1565 1562 1564 1572 1580 1581 1579 1581 1585 1589 1590 1592 1593 1585 1576 1565 1566 1586 1588 1570 1564 1561 1557 1560 1562 1562 1564 1563 1563 1562 1561 1561 1560 1559 1560 1558 1557 1557
1552 1554 1556 1556 1556 1557 1560 1564 1564 1565 1568 1569 1571 1577 1579 1579 1581 1581 1581 1582 1581 1582 1582 1582 1583 1581 1580 1580 1579 1579 1581 1583 1581 1581 1584 1584 1582 1581 1579 1580 1580 1578 1578 1577 1576 1579 1576 1578 1592 1594 1585 1586 1589 1590 1593 1589 1583 1582 1583 1585 1589 1592 1594 1588 1575 1570 1575 1575 1564 1566 1578 1568 1555 1558 1561 1561 1563 1563 1562 1562 1560 1560 1560 1559 1558 1557 1556 1556
1552 1555 1558 1558 1558 1560 1562 1563 1565 1566 1568 1569 1574 1579 1578 1578 1580 1580 1581 1582 1581 1582 1581 1580 1582 1583 1582 1582 1578 1577 1580 1580 1580 1583 1585 1584 1584 1581 1577 1579 1580 1577 1579 1578 1577 1578 1573 1575 1594 1598 1591 1599 1602 1596 1596 1594 1590 1591 1588 1586 1589 1591 1591 1585 1578 1580 1580 1568 1559 1571 1582 1570 1558 1560 1560 1560 1563 1562 1560 1561 1560 1559 1559 1557 1557 1556 1555 1554
1553 1555 1559 1559 1559 1562 1564 1565 1566 1566 1568 1570 1575 1578 1577 1576 1578 1580 1582 1582 1581 1582 1581 1579 1582 1584 1585 1585 1581 1578 1580 1577 1577 1583 1586 1585 1586 1583 1579 1579 1579 1578 1579 1578 1578 1579 1575 1580 1599 1600 1591 1597 1602 1598 1599 1597 1593 1592 1590 1588 1589 1589 1590 1586 1583 1587 1585 1577 1577 1583 1583 1574 1564 1561 1560 1560 1561 1560 1560 1559 1558 1557 1557 1556 1555 1555 1553 1553
1553 1554 1557 1558 1561 1565 1566 1567 1567 1566 1569 1570 1571 1576 1578 1576 1577 1581 1583 1582 1580 1581 1581 1581 1584 1585 1585 1586 1582 1580 1583 1582 1580 1584 1587 1586 1585 1585 1584 1583 1583 1580 1578 1578 1581 1579 1572 1581 1603 1602 1582 1584 1599 1600 1597 1598 1595 1589 1587 1590 1592 1591 1591 1591 1589 1590 1588 1582 1584 1587 1585 1576 1564 1559 1561 1559 1558 1559 1558 1557 1557 1556 1556 1555 1554 1553 1552 1551
1553 1554 1555 1556 1562 1568 1568 1568 1569 1567 1568 1568 1568 1574 1577 1576 1577 1580 1582 1583 1582 1582 1582 1582 1584 1585 1585 1585 1584 1584 1586 1586 1585 1586 1587 1587 1586 1586 1587 1587 1588 1584 1581 1582 1582 1579 1576 1583 1599 1592 1565 1569 1594 1598 1594 1598 1597 1587 1579 1580 1588 1590 1586 1585 1585 1583 1579 1577 1580 1581 1574 1565 1559 1559 1560 1558 1557 1558 1556 1556 1556 1554 1554 1554 1552 1551 1551 1549
1553 1554 1555 1555 1561 1569 1568 1569 1569 1566 1565 1568 1569 1573 1575 1575 1577 1578 1579 1583 1584 1583 1583 1584 1584 1584 1585 1585 1586 1587 1587 1586 1587 1587 1587 1587 1587 1588 1587 1589 1589 1587 1586 1587 1584 1587 1587 1581 1585 1582 1560 1562 1589 1598 1594 1590 1575 1564 1563 1566 1575 1582 1580 1579 1580 1578 1575 1574 1571 1565 1557 1555 1558 1560 1558 1557 1556 1556 1555 1554 1554 1552 1552 1552 1551 1550 1549 1548
Wind_Speed
9 9 10 11 12 13 13 14 15 15 16 17 18 19 20 21 19 16 14 14 12 11 11 11 6 5 8 10 11 10 8 8 8 8 9 11 11 11 11 11 12 10 10 10 9 6 3 3 2 4 6 7 9 11 12 11 13 10 6 7 7 8 7 3 6 10 14 15 13 11 11 16 14 13 15 16 21 23 24 23 19 20 20 17 17 16 15 19
7 7 7 8 9 11 12 13 14 14 15 15 17 19 20 19 16 13 13 14 13 11 12 9 5 5 7 9 9 7 5 6 8 9 10 10 9 10 10 10 10 9 9 9 8 4 2 2 3 5 5 7 8 11 11 10 12 6 4 8 5 4 3 3 8 15 17 19 17 15 15 15 13 10 11 12 15 18 20 17 16 20 20 19 20 20 19 20
5 5 5 7 8 9 11 13 13 13 14 15 17 19 20 19 14 12 14 15 14 12 11 7 5 5 7 8 8 6 4 3 7 10 10 10 9 10 10 10 9 7 7 8 7 3 1 2 4 5 5 6 8 10 9 10 11 3 3 7 3 7 8 7 12 17 19 24 22 17 16 18 14 11 14 17 16 17 15 11 12 15 15 17 20 22 22 21
4 5 6 7 8 10 11 12 12 12 13 14 17 19 20 19 14 11 15 16 13 10 7 5 5 6 7 7 8 8 3 2 5 11 12 12 11 11 11 10 8 7 6 6 7 3 3 4 4 5 5 5 7 10 8 9 9 2 2 4 6 9 10 10 15 20 21 25 24 21 20 20 16 15 14 15 14 13 11 9 9 10 10 14 18 21 22 21
6 6 7 8 9 10 10 10 10 10 12 14 17 19 20 18 14 12 15 16 11 7 5 4 6 7 7 6 9 10 1 4 6 13 14 14 13 11 11 10 9 6 5 6 6 3 3 5 4 5 4 4 8 9 6 7 8 5 3 5 9 11 12 12 17 23 23 23 24 21 16 15 18 20 17 14 12 7 7 8 7 8 8 12 17 20 20 20
7 8 8 8 9 9 9 8 8 9 12 15 17 19 18 16 14 11 14 14 7 6 5 5 7 8 9 7 9 11 3 0 10 15 16 17 14 11 10 10 8 5 5 5 5 2 4 6 5 5 4 4 7 7 5 7 7 5 4 7 10 14 17 15 18 20 21 23 21 17 16 19 22 20 20 23 16 9 7 6 7 9 9 12 15 18 19 19
8 8 8 9 9 8 7 7 7 9 12 15 17 18 16 15 13 11 13 11 6 6 6 6 8 9 10 8 8 12 9 5 13 17 20 20 13 8 8 9 7 4 4 4 3 2 5 6 5 6 5 4 4 5 8 8 8 8 8 10 13 19 22 18 18 18 20 23 21 22 22 19 19 14 16 22 16 10 9 7 8 10 11 14 15 18 19 19
9 9 9 9 8 8 7 5 6 9 14 18 20 18 16 14 13 12 11 8 5 5 6 6 7 8 9 10 6 8 12 11 16 20 22 19 9 5 7 8 6 3 3 4 2 4 6 5 6 7 4 4 4 7 12 12 11 11 11 14 17 21 23 21 22 23 26 26 27 30 25 20 21 19 18 17 12 10 9 9 11 12 13 15 15 17 18 19
10 10 10 10 9 8 6 4 5 10 16 20 21 19 17 14 13 13 10 5 3 3 4 4 6 8 7 9 7 4 10 14 17 21 21 12 4 4 6 6 3 2 3 4 2 5 5 5 6 5 3 4 7 10 9 6 7 12 16 19 21 22 22 25 24 24 24 23 28 31 21 17 16 15 17 13 9 9 7 10 13 14 15 15 16 17 17 18
11 11 10 10 9 7 5 3 4 9 15 18 21 21 20 15 12 13 11 5 3 1 1 3 5 7 6 8 8 5 10 16 18 21 16 6 3 5 5 3 1 2 3 3 3 5 4 5 5 6 6 5 7 6 1 3 13 22 26 25 25 24 20 22 23 23 22 18 24 28 18 15 11 7 9 8 7 8 8 11 13 15 15 15 17 17 18 17
11 11 10 10 8 7 4 2 4 6 12 15 18 20 22 21 13 10 12 7 3 2 2 3 5 6 5 7 9 7 12 17 19 20 10 2 3 3 3 2 1 1 1 3 4 6 5 5 7 7 5 6 9 8 8 17 26 30 33 27 24 24 20 18 19 19 18 14 22 30 22 19 16 9 7 6 6 8 10 11 13 15 14 15 17 18 19 18
11 11 10 9 8 6 3 2 5 2 7 13 16 17 20 24 18 8 9 11 6 3 2 3 3 6 4 5 11 10 13 16 18 18 7 1 3 2 2 2 2 1 1 3 5 7 4 5 6 2 3 10 12 11 15 26 32 32 33 23 17 20 15 11 11 11 13 13 15 20 17 15 13 9 7 5 6 8 10 9 12 15 13 14 16 17 19 19
11 11 10 9 8 6 3 1 5 6 1 7 13 15 15 21 24 10 5 14 11 3 1 2 2 6 5 2 8 12 13 16 15 12 4 2 2 3 2 1 2 1 1 1 5 7 4 4 3 2 8 10 8 12 20 28 29 26 23 17 13 14 8 7 5 7 10 8 2 1 5 6 7 6 5 4 5 7 8 7 10 12 10 12 15 17 19 20
12 12 10 9 8 5 4 2 3 7 7 3 7 14 14 18 24 13 2 11 17 9 1 1 3 6 7 3 5 13 14 15 12 6 1 3 1 3 2 1 2 2 0 1 5 6 5 5 6 8 10 7 13 22 22 21 20 17 16 13 9 8 5 5 6 2 5 3 3 2 4 4 3 4 4 4 4 6 7 6 9 11 10 11 13 16 18 19
13 13 11 10 9 6 4 4 2 4 6 5 2 9 13 16 23 15 2 2 12 16 6 2 1 4 7 5 6 12 14 15 12 7 3 2 2 2 2 1 2 2 1 2 4 6 6 6 7 7 10 17 24 23 15 12 13 11 12 10 7 7 6 5 8 5 2 4 4 2 6 5 3 4 4 3 3 4 5 5 7 10 11 11 12 15 17 17
14 13 13 11 10 7 5 4 1 1 2 2 1 4 10 16 23 16 5 2 4 12 12 3 2 2 6 8 9 13 16 19 15 8 4 0 2 2 2 2 2 3 3 5 6 8 7 6 8 9 14 22 20 14 12 11 10 8 8 10 11 11 9 6 6 8 2 3 6 4 7 5 4 5 4 3 3 3 4 4 5 8 9 9 10 13 14 14
14 14 14 13 11 7 5 4 1 2 1 1 1 2 5 13 24 20 11 8 4 3 12 12 2 4 7 13 16 17 17 19 14 6 4 1 2 2 3 3 4 5 6 8 8 8 7 7 11 11 10 11 10 11 13 10 10 9 8 10 12 12 11 8 4 7 3 5 8 10 10 7 6 7 5 4 3 3 3 4 4 5 6 6 6 9 11 13
14 15 15 15 13 8 5 5 1 2 2 1 1 1 1 4 16 26 21 16 15 8 10 18 9 5 5 15 19 18 13 16 15 6 5 3 2 2 4 6 7 8 8 10 6 4 6 6 9 9 5 5 6 8 9 9 12 14 12 13 12 9 8 7 4 4 7 11 12 13 12 9 8 7 5 4 4 4 3 3 3 4 5 4 5 7 9 11
14 14 15 15 13 9 7 4 2 2 4 3 2 2 0 1 5 21 30 27 23 14 7 16 14 2 4 13 18 17 9 12 16 8 4 4 5 7 8 8 7 6 8 9 4 4 3 5 8 10 8 5 4 3 2 4 11 16 16 15 14 9 7 8 7 4 8 14 11 10 12 11 9 6 5 5 3 3 3 2 2 3 4 3 4 5 7 9
14 14 14 15 13 10 8 5 3 1 4 5 4 3 2 1 0 9 24 27 21 13 7 11 15 9 5 7 15 19 11 12 17 10 3 5 8 8 8 7 5 6 6 4 4 4 2 6 6 5 4 1 2 3 4 3 13 17 15 14 14 12 9 8 7 3 3 8 8 8 12 11 8 6 4 4 3 3 2 2 2 2 2 2 2 3 5 7
14 14 13 14 13 11 8 6 4 2 3 5 5 3 3 4 1 3 10 16 14 11 9 10 16 16 8 6 14 18 14 16 20 14 4 4 3 3 4 5 6 6 3 1 3 3 3 6 4 4 3 3 4 5 1 10 17 16 14 14 12 10 9 8 6 3 2 5 6 7 11 10 7 5 3 3 3 2 1 1 1 1 1 1 1 3 5 7
14 14 12 12 12 10 9 7 6 3 3 3 4 4 3 4 1 3 4 6 8 10 9 9 15 21 16 9 12 16 16 15 18 18 9 3 1 2 4 5 5 5 2 0 4 6 6 5 6 8 4 2 3 2 11 18 16 14 12 11 10 9 9 8 8 6 4 5 6 7 9 8 5 4 2 1 1 1 0 1 1 1 1 1 3 4 6 7
15 16 14 12 10 8 8 7 7 3 4 3 3 4 4 4 2 1 2 4 4 9 11 11 16 25 22 12 11 15 16 15 15 19 15 7 5 7 7 6 7 5 3 4 5 6 6 3 7 5 4 2 6 8 15 17 12 11 10 8 8 6 7 5 6 9 9 7 8 9 8 5 3 2 1 1 0 1 2 3 3 3 3 4 5 6 7 8
16 17 16 13 11 7 5 7 7 3 2 3 4 2 3 2 3 2 2 3 2 8 13 14 17 25 24 16 12 11 14 18 18 20 17 12 9 8 7 7 8 8 6 9 10 9 7 7 6 1 4 7 14 12 13 13 9 9 8 8 9 7 9 9 8 12 13 10 7 8 6 3 1 1 2 2 1 3 3 4 5 5 6 6 6 7 8 10
18 19 18 16 14 9 2 3 5 2 1 3 4 2 3 1 2 3 2 2 1 8 14 13 14 21 24 18 11 7 11 18 21 20 16 11 7 5 5 5 5 6 5 8 11 9 9 10 6 4 6 9 12 9 5 7 10 8 4 4 13 15 15 16 14 11 10 6 2 3 4 3 2 3 4 3 3 4 5 6 7 7 8 8 8 8 10 10
20 20 21 19 17 12 3 1 2 1 1 2 2 2 4 1 1 3 3 1 2 7 12 13 12 16 22 21 11 3 6 13 18 22 17 10 7 4 3 4 4 5 4 6 8 4 7 9 5 6 8 7 10 9 4 2 10 9 3 2 13 20 18 16 12 6 6 5 2 2 2 2 2 4 4 3 4 6 5 8 10 10 9 9 9 11 11 11
20 22 23 22 20 14 6 1 1 2 1 2 2 1 4 2 2 5 2 1 4 7 10 13 12 13 18 22 18 4 1 7 12 22 21 13 11 8 5 4 4 4 1 1 5 2 6 9 9 8 8 6 8 7 5 4 6 7 2 4 10 16 17 14 8 6 7 5 3 1 2 1 4 3 2 2 4 7 7 10 11 11 10 9 11 12 12 13
20 22 24 24 21 16 9 4 1 4 2 3 3 1 3 3 3 3 1 2 4 6 7 10 11 15 18 21 25 14 6 9 7 14 21 17 15 13 12 10 10 10 7 3 5 3 5 9 9 6 7 7 3 2 4 4 9 6 6 7 5 6 8 9 7 8 7 5 4 3 6 1 4 2 2 2 4 10 12 13 12 11 11 10 11 13 14 14
19 22 24 24 22 18 10 5 2 4 3 3 2 2 4 4 2 1 3 2 3 5 7 9 10 16 21 17 21 19 13 13 8 10 19 19 15 15 14 14 18 18 15 12 9 4 3 6 6 5 6 6 4 3 5 3 10 10 10 9 5 4 5 6 8 8 5 3 3 5 7 1 4 4 4 4 5 11 12 10 8 9 11 11 12 14 16 16
19 21 24 24 21 19 11 5 2 3 4 4 4 6 7 4 1 1 5 1 2 5 8 9 7 14 21 12 12 17 12 12 14 13 19 21 20 20 14 11 15 13 13 15 11 5 4 4 5 6 5 2 3 7 4 7 16 17 12 9 8 7 7 6 6 5 5 3 3 4 6 3 2 4 6 5 3 5 6 6 5 7 11 12 14 16 18 18
19 21 22 23 22 20 14 7 4 4 5 7 7 7 7 4 2 4 3 2 2 5 6 5 6 11 14 6 5 13 9 8 13 13 13 14 17 21 13 6 7 7 9 9 7 7 7 6 4 4 7 5 2 10 11 10 13 11 8 8 8 7 7 6 4 2 5 4 3 3 5 3 3 2 3 4 2 0 3 4 5 9 13 15 18 20 20 21
18 21 21 20 22 22 17 9 5 4 3 6 8 2 2 2 4 3 1 4 3 4 4 3 4 8 8 4 4 9 5 4 9 9 6 5 7 11 9 5 3 2 7 4 3 8 7 6 6 5 8 12 5 7 7 5 4 4 6 6 7 7 5 4 3 3 3 2 3 2 2 2 4 1 2 5 5 4 6 5 5 8 15 20 22 24 24 24
15 19 19 19 19 21 20 14 8 4 3 5 6 1 2 3 4 2 3 3 2 3 3 3 5 7 8 5 5 7 4 2 7 7 4 3 3 6 7 11 8 1 4 2 3 6 3 3 11 8 6 13 9 4 6 4 3 3 4 3 6 7 6 5 3 1 1 2 3 2 2 2 3 1 2 4 3 3 5 7 8 8 11 18 21 24 26 25
12 17 18 18 16 18 20 17 14 8 4 6 5 3 6 5 2 1 2 2 1 3 3 3 7 7 3 3 4 6 2 3 5 7 6 4 5 4 5 12 13 5 2 3 3 5 4 4 9 7 4 11 9 4 2 2 3 2 2 1 3 3 2 5 3 1 2 3 3 1 1 2 1 1 2 2 1 3 5 8 10 10 11 14 17 21 25 25
10 13 16 17 16 16 17 17 17 12 7 9 7 5 6 3 1 1 1 3 2 3 5 4 5 4 3 3 2 4 4 4 5 6 7 7 6 5 6 8 12 8 2 3 3 2 4 3 3 3 5 8 7 4 3 2 2 2 2 2 1 1 1 3 2 2 2 2 3 1 2 2 1 1 2 3 4 6 5 5 8 9 10 13 16 18 21 23
8 11 14 16 17 15 14 16 17 12 13 15 9 4 3 1 1 0 2 2 2 4 6 4 2 3 4 3 2 5 5 4 6 5 4 5 5 6 6 4 8 9 5 2 2 1 3 3 2 3 3 4 6 6 5 3 0 1 0 1 2 2 1 4 3 2 1 2 3 1 3 2 1 1 1 3 4 4 3 3 5 7 8 11 14 18 20 22
6 10 14 15 17 17 11 13 15 15 21 19 8 3 2 0 0 1 3 4 2 3 4 2 2 3 3 2 4 9 8 3 5 6 3 2 3 6 7 4 4 7 6 3 2 2 2 4 2 3 2 3 6 6 6 6 2 1 1 4 3 1 1 1 2 2 1 2 2 0 3 2 2 1 2 1 1 1 1 2 4 6 10 13 15 17 19 21
5 7 13 16 16 18 13 8 5 9 20 17 6 3 1 1 1 2 3 3 2 3 2 1 3 2 1 1 3 7 8 5 5 5 3 3 3 5 7 4 3 7 8 5 2 2 1 4 2 2 0 1 4 3 1 7 10 6 5 5 2 1 1 1 1 2 2 2 2 1 2 2 2 1 1 1 3 2 0 2 4 7 11 14 17 18 18 19
4 4 12 17 13 15 18 12 6 9 15 9 3 3 0 2 2 3 3 3 2 3 3 3 3 2 2 2 2 4 5 5 4 2 2 4 3 4 7 4 3 7 10 6 2 1 2 2 3 2 3 3 1 2 1 4 8 7 6 3 1 2 1 1 1 1 1 2 2 1 1 1 2 1 2 3 3 3 3 2 3 6 8 11 16 19 19 20
3 2 9 16 12 9 11 11 15 18 11 3 1 2 0 1 2 3 3 2 1 2 3 3 3 2 3 2 1 2 3 4 4 3 3 4 2 3 6 5 5 9 9 4 1 1 3 1 3 2 1 2 1 4 3 3 3 1 1 1 2 2 1 1 2 2 1 1 2 2 2 1 1 1 2 4 4 3 3 4 4 5 6 8 11 16 18 20
3 2 6 13 11 6 5 7 14 14 5 1 2 1 1 1 2 3 3 2 1 3 3 3 3 2 2 2 2 3 3 4 4 3 3 4 4 3 4 7 7 8 7 2 2 3 3 2 3 2 2 3 3 3 2 3 3 2 2 2 2 1 1 1 3 1 1 1 0 1 2 1 1 1 2 3 3 3 4 5 7 7 7 7 7 9 11 14
4 3 5 10 8 6 7 9 9 6 3 2 2 1 0 1 1 2 3 2 1 2 2 2 3 3 2 2 2 2 2 3 3 3 3 3 5 3 5 10 9 6 3 1 2 3 2 2 5 4 2 2 2 1 0 2 3 3 2 1 1 0 1 1 1 3 2 1 1 1 1 2 1 2 3 3 3 5 6 7 9 10 8 7 7 7 8 10
8 6 5 6 4 6 8 6 3 3 3 2 1 2 0 1 1 2 2 3 2 1 2 2 1 3 3 2 2 2 2 3 2 3 2 1 3 3 6 11 9 4 2 1 1 1 1 1 3 2 0 1 1 2 1 2 3 3 1 1 0 1 1 2 1 2 2 1 1 1 1 1 2 2 2 4 6 9 10 10 11 11 11 11 11 10 10 10
10 11 11 7 2 2 4 3 2 2 2 1 2 2 1 1 2 2 2 2 2 1 1 2 1 2 2 1 1 2 2 1 2 2 1 0 2 3 6 10 9 4 3 2 2 3 1 0 1 2 2 2 2 3 3 2 2 2 0 1 1 2 2 1 1 1 1 1 0 0 2 1 2 2 2 4 5 8 9 8 9 12 14 13 11 10 10 11
4 8 12 12 6 5 5 6 6 5 2 2 3 2 1 2 3 4 3 2 3 2 1 1 1 1 1 0 1 2 3 2 2 1 1 1 1 2 5 8 8 6 3 2 4 4 1 1 1 0 2 2 2 2 1 1 2 0 1 1 1 1 1 1 1 1 1 2 0 1 1 2 2 1 3 4 3 5 5 6 8 10 10 8 8 9 10 11
2 2 5 10 11 13 13 11 10 8 4 3 3 1 1 2 2 3 3 2 3 4 3 2 0 1 1 0 1 2 4 4 2 2 1 2 1 1 4 5 7 7 3 3 5 2 3 2 2 0 0 2 3 2 2 2 2 2 1 3 2 1 1 1 1 1 1 4 3 3 1 1 1 3 3 4 4 4 6 8 9 8 6 7 10 11 12 12
3 1 1 3 8 12 13 9 9 8 4 3 2 1 1 2 1 1 2 2 2 2 2 3 2 0 0 0 1 2 2 3 2 2 2 2 2 3 5 3 5 8 2 1 4 2 3 2 2 0 1 3 3 3 3 3 1 2 2 3 3 2 1 2 2 0 3 4 1 1 2 2 2 1 3 4 4 5 7 8 8 9 10 11 12 12 12 13
2 3 4 4 2 3 4 4 7 9 6 3 2 1 1 2 1 1 2 1 1 1 0 2 4 3 1 1 0 1 1 2 2 2 1 2 2 4 3 2 3 9 4 1 4 2 1 2 2 0 2 2 3 3 3 2 1 0 1 3 3 3 4 4 2 2 4 3 1 2 3 5 5 3 3 4 4 7 9 9 9 11 12 12 12 12 14 15
6 8 6 5 4 4 5 6 11 12 7 3 3 1 2 3 2 2 1 0 1 2 1 1 3 4 2 1 1 1 1 1 2 1 1 2 2 3 3 1 2 9 7 2 3 3 1 2 2 1 1 3 3 2 1 1 1 1 3 3 4 4 5 5 3 2 3 4 3 0 4 9 9 7 9 8 8 9 10 10 11 13 13 12 12 14 16 16
6 6 6 9 10 9 9 8 8 7 3 1 2 1 1 3 3 3 0 1 1 1 2 1 2 1 1 0 0 2 2 2 3 2 0 1 1 2 3 1 2 7 8 3 2 3 1 1 2 2 1 2 3 2 2 1 0 2 4 4 4 3 4 5 3 1 2 5 4 2 5 9 7 6 9 10 9 10 10 11 13 13 11 11 14 17 18 16
4 4 7 11 8 4 3 3 2 1 1 0 1 3 3 2 5 6 3 3 1 1 2 3 5 2 1 3 4 4 2 2 3 4 2 1 2 2 2 1 2 5 6 4 3 5 3 1 1 1 1 1 2 2 2 2 0 2 5 6 7 5 3 4 4 4 5 3 2 3 3 4 2 1 5 8 8 10 11 12 13 13 12 13 17 18 16 14
6 8 10 8 4 1 2 1 1 1 2 1 2 4 2 3 8 8 3 2 1 2 2 5 6 2 1 4 4 3 2 3 4 5 5 5 6 6 5 4 3 3 3 2 2 3 2 1 1 1 0 1 2 3 3 3 2 1 2 3 8 8 5 3 3 6 8 6 4 3 2 1 1 0 3 5 6 8 11 11 13 14 16 17 17 15 14 15
Wind_Direction
78 72 64 55 48 42 36 28 21 16 11 4 356 351 352 355 358 1 7 7 5 4 359 354 354 5 356 348 352 356 8 29 29 18 12 8 1 351 344 335 334 339 338 337 335 336 349 7 33 149 141 157 164 163 166 164 166 172 193 196 201 195 188 178 158 141 126 133 142 139 124 116 111 100 96 78 73 79 77 71 71 84 90 93 98 106 110 104
72 65 54 45 39 33 25 18 14 11 5 357 349 346 350 359 4 7 8 2 0 1 359 3 22 17 350 345 353 358 19 44 34 21 11 4 353 342 336 330 333 335 337 335 331 349 46 35 111 143 151 159 157 159 163 165 169 183 203 192 204 162 118 39 120 126 126 134 129 121 117 106 106 106 103 91 71 74 73 61 66 77 84 96 100 104 106 103
59 47 34 25 21 14 9 8 8 7 1 353 346 342 349 360 5 7 4 358 356 359 7 26 38 12 352 352 356 356 359 42 29 13 0 356 351 341 332 323 327 336 335 328 329 341 111 117 130 138 156 158 152 162 160 165 176 195 212 193 169 102 82 69 114 122 128 130 120 113 105 85 83 98 105 106 83 64 59 43 50 58 66 85 95 100 101 100
29 14 3 360 357 355 357 1 5 5 358 350 343 343 351 357 360 3 1 359 359 8 29 52 36 13 6 5 4 355 332 148 24 353 342 344 345 338 327 319 320 333 331 320 324 312 163 142 146 142 159 157 147 163 162 169 173 144 213 181 123 111 88 86 109 115 121 122 117 113 101 83 79 86 99 113 93 62 49 38 40 43 57 80 91 96 98 99
8 356 350 346 344 347 353 0 8 5 356 348 346 350 353 353 355 359 0 2 12 41 67 59 36 29 22 17 14 8 281 170 358 336 332 336 334 330 320 315 315 323 333 319 316 300 171 153 151 152 168 150 150 167 157 151 141 94 70 87 112 117 95 99 111 112 116 115 112 106 94 96 94 73 63 80 87 69 47 46 56 58 70 88 92 94 97 99
358 351 347 343 344 349 355 7 14 7 359 355 356 359 356 354 358 358 358 6 34 76 83 65 49 41 29 20 16 23 70 138 345 330 331 335 326 319 310 310 311 314 331 321 310 273 168 161 164 168 165 144 161 166 133 145 142 108 81 80 108 113 106 113 110 110 116 111 104 99 100 105 97 72 55 65 70 72 62 58 77 83 91 95 97 97 101 102
355 351 350 350 353 356 5 21 26 15 12 13 13 9 3 2 6 1 359 12 53 76 78 72 55 42 29 23 11 25 47 11 337 331 332 335 323 302 302 305 303 310 330 323 304 206 163 170 176 166 156 143 159 144 119 126 117 107 103 92 100 105 108 116 108 106 106 99 100 105 101 92 89 83 67 64 60 62 66 72 83 93 103 99 99 99 100 101
356 356 357 357 359 3 17 40 41 34 33 30 24 17 11 9 10 4 1 19 63 73 73 70 50 33 24 24 8 19 32 357 329 332 334 335 325 287 302 304 291 279 302 309 281 173 158 175 173 162 165 143 142 142 130 117 96 100 112 104 99 99 105 110 105 103 99 99 105 100 88 81 89 88 72 62 61 61 68 94 93 92 101 98 95 96 97 97
0 0 0 1 1 5 24 59 64 51 43 35 29 24 17 12 11 9 10 29 61 81 71 56 32 18 14 19 18 30 15 347 326 332 338 339 331 306 309 300 282 236 276 299 229 165 156 169 170 166 157 117 134 145 142 132 107 114 118 111 104 101 107 110 105 104 103 108 108 96 84 87 92 85 67 54 66 76 84 104 100 94 96 94 91 95 98 99
2 1 2 3 0 4 26 89 93 59 47 39 32 27 21 15 11 18 24 25 27 58 35 3 354 1 10 15 25 42 3 344 329 334 341 348 353 332 322 305 264 209 268 283 193 166 159 165 164 146 120 118 138 137 144 132 122 120 114 106 102 101 104 106 106 108 102 101 104 98 86 71 69 83 73 51 65 92 103 100 101 94 89 92 93 96 100 101
359 358 360 1 359 3 18 149 149 71 52 41 32 27 22 15 8 14 22 17 358 336 305 321 337 352 6 29 40 32 355 343 333 339 347 19 14 349 338 14 130 158 256 257 194 167 164 164 152 138 121 136 128 94 94 119 121 120 111 99 97 98 96 98 105 111 104 97 100 98 84 53 49 69 76 72 82 100 105 96 100 94 84 91 93 96 99 99
355 353 356 357 356 0 6 184 195 168 60 44 30 23 18 13 8 0 13 19 2 321 325 312 329 356 356 51 49 23 352 346 336 340 354 104 42 37 15 68 139 132 200 236 190 168 166 157 151 141 133 143 125 99 116 126 123 120 111 104 104 100 88 80 95 112 116 122 112 100 84 45 38 66 73 82 93 101 100 89 100 95 82 89 93 95 97 95
350 351 354 353 354 1 1 255 218 229 233 42 30 21 14 7 6 2 21 30 22 339 333 352 0 19 14 99 46 17 355 353 344 337 348 151 84 61 62 96 133 137 198 222 182 170 152 142 134 118 137 138 119 118 133 132 126 119 112 114 119 105 77 38 67 114 119 129 181 188 104 60 44 70 75 82 97 100 90 78 97 97 83 88 94 96 97 95
349 350 353 351 354 6 2 336 243 242 251 280 21 24 20 5 4 9 68 44 36 29 341 69 66 40 36 97 25 5 355 355 358 355 25 173 138 66 74 120 150 168 203 193 178 160 131 121 109 118 132 123 119 127 134 136 132 124 116 123 126 114 100 34 24 85 118 100 295 269 128 114 77 75 79 89 101 100 87 80 95 100 95 90 93 97 97 96
351 350 354 352 354 9 11 352 300 247 259 267 321 20 24 11 6 15 89 63 33 30 33 181 99 54 52 55 358 351 351 355 7 28 52 152 133 78 58 57 171 181 148 152 161 136 117 118 110 111 121 126 132 133 135 141 141 136 130 137 139 120 122 81 27 10 105 87 21 66 114 115 116 108 106 104 111 104 86 78 90 98 97 90 92 98 98 97
353 351 353 353 354 8 14 3 3 218 266 281 292 28 32 24 17 23 52 11 348 22 34 53 210 98 59 30 1 356 2 3 8 20 15 43 121 96 42 26 165 157 135 136 131 118 109 113 113 110 128 137 142 141 136 137 146 157 151 147 143 133 136 127 44 8 5 85 31 68 127 124 128 133 122 110 123 115 92 82 82 89 90 84 88 97 100 101
358 353 352 352 355 7 16 10 37 158 214 281 149 66 47 39 33 38 52 40 22 32 39 37 55 154 58 21 3 358 5 9 8 16 15 24 143 110 60 63 133 129 120 127 125 112 98 108 122 124 139 150 151 147 143 149 157 158 153 142 137 134 139 144 85 26 37 102 75 90 113 114 123 132 123 110 119 111 94 84 72 73 79 73 82 96 103 106
2 354 352 353 356 4 14 9 14 160 173 223 193 134 89 55 39 40 47 49 46 47 30 24 29 153 46 6 354 348 355 11 11 18 33 38 160 113 82 102 122 119 120 128 120 92 89 105 136 141 144 152 162 162 156 159 158 153 150 142 132 120 116 119 103 53 79 99 96 97 104 111 122 129 122 116 122 110 88 75 72 74 75 66 78 96 106 111
5 358 353 352 355 359 3 1 354 173 186 203 203 195 162 218 25 34 38 43 47 50 29 18 25 55 331 342 351 356 360 17 14 14 39 61 106 102 99 106 110 114 132 141 111 48 83 121 144 150 149 157 164 155 177 175 150 144 143 139 130 111 84 91 96 77 86 89 85 98 114 125 130 129 131 128 121 115 105 87 80 78 76 66 73 101 113 116
8 5 357 351 351 350 352 356 333 242 202 205 205 221 225 201 300 31 37 43 54 66 67 36 31 21 335 340 6 16 28 33 25 21 49 98 104 96 89 92 101 111 124 140 96 55 112 140 138 140 142 131 8 331 284 167 126 120 118 117 113 103 91 99 104 60 47 74 67 93 114 123 125 125 132 135 137 135 137 134 98 72 78 68 75 126 132 131
10 11 3 354 347 339 343 350 332 276 222 212 205 214 207 191 154 63 56 54 57 63 58 41 31 24 15 7 11 16 23 31 33 32 51 130 116 77 69 93 117 109 73 6 106 103 131 131 87 8 356 325 307 276 204 109 109 101 102 109 99 96 95 85 84 52 35 92 91 107 111 106 109 116 121 147 169 165 142 154 131 92 92 93 164 159 152 146
8 7 5 358 348 333 328 336 337 293 234 211 206 213 196 180 117 58 90 81 59 49 44 36 29 22 19 19 12 16 18 19 25 29 39 116 125 79 87 94 108 103 58 203 153 138 127 105 26 354 318 283 303 207 116 103 100 96 102 111 101 106 106 75 57 57 61 104 121 131 114 97 93 97 109 158 191 174 188 250 225 179 190 207 191 173 163 157
7 6 7 5 354 335 318 325 336 303 227 196 190 204 209 220 255 340 88 111 70 36 31 32 23 16 17 17 14 25 32 25 12 13 28 64 74 72 86 88 90 89 79 106 126 127 116 48 359 337 275 149 91 102 114 106 101 109 114 117 116 128 121 86 63 69 67 87 126 135 109 90 98 93 152 186 265 258 255 266 254 231 225 215 200 185 173 166
6 5 7 7 2 346 314 324 334 316 213 194 179 192 221 244 260 221 101 120 94 17 18 24 18 14 13 9 14 39 46 36 20 12 28 61 71 68 73 73 76 80 79 82 84 81 66 11 352 261 214 128 108 108 115 112 107 109 112 121 127 117 98 102 111 98 83 79 108 126 109 103 146 177 195 170 219 249 246 252 251 244 236 223 210 198 185 176
5 5 5 5 3 358 316 323 343 337 220 193 172 185 192 98 302 215 133 115 62 0 3 12 13 13 11 6 16 65 62 39 25 20 32 57 70 80 71 49 59 76 70 65 72 65 34 5 358 120 135 113 110 112 98 109 117 103 65 108 127 118 107 119 131 117 98 89 85 122 139 161 173 215 213 187 220 240 232 239 246 241 237 234 224 209 197 188
6 5 4 2 1 4 7 240 2 53 234 192 177 194 178 136 325 177 146 94 40 356 354 1 3 10 11 9 12 74 78 35 25 32 42 53 58 92 93 42 55 77 67 56 72 68 7 1 21 96 112 105 107 106 20 30 127 118 22 71 130 126 124 139 150 130 107 116 139 198 194 153 161 216 216 192 243 255 242 240 241 233 232 235 228 216 206 201
4 3 3 2 0 5 11 357 155 162 144 159 185 217 183 170 117 145 163 54 31 356 349 355 359 9 13 20 28 63 151 353 16 40 44 55 63 77 89 66 73 67 52 127 77 39 336 4 34 66 88 94 102 97 344 331 120 115 97 138 138 129 133 153 157 116 108 112 136 232 321 138 169 208 162 130 257 262 250 241 233 223 224 229 228 222 214 211
1 1 3 4 3 5 9 8 134 175 178 165 165 165 185 171 143 163 139 67 6 339 343 350 360 13 18 34 43 53 49 4 8 33 40 58 67 72 75 66 77 59 33 118 104 43 349 18 26 29 65 74 68 351 329 52 88 100 121 122 112 106 135 153 121 105 127 136 124 9 345 202 165 137 118 146 238 242 239 234 223 213 217 222 225 224 218 213
1 2 4 5 7 8 9 14 79 156 171 175 143 115 157 152 172 192 64 75 326 335 349 352 356 1 8 32 41 38 39 33 26 25 43 60 66 81 85 68 76 68 49 70 90 71 31 33 18 8 51 59 35 324 294 56 93 119 120 106 109 99 101 117 105 112 148 155 107 17 346 263 169 149 162 183 229 234 229 227 220 210 213 219 222 221 217 213
5 7 7 8 12 15 20 39 79 151 159 154 117 97 108 108 158 75 46 17 301 343 336 350 355 346 355 14 28 22 29 31 20 24 48 56 56 66 78 72 73 75 66 66 71 79 65 40 27 31 34 337 41 55 28 89 115 133 132 119 128 113 84 82 86 112 156 161 93 28 347 319 197 167 178 193 219 235 224 219 215 207 211 219 223 221 216 213
9 13 12 12 19 24 31 50 84 131 144 158 145 97 86 75 49 87 58 305 294 348 339 352 358 348 357 7 6 5 16 30 16 18 40 47 45 41 37 49 54 62 74 60 61 75 54 38 34 26 20 344 80 80 63 88 118 139 147 128 114 101 96 94 80 146 183 174 95 36 343 306 238 176 166 200 192 171 228 220 206 204 206 213 220 219 213 212
11 15 15 16 23 27 33 46 79 110 125 170 177 140 71 78 43 75 307 304 312 355 357 340 343 344 334 320 0 355 353 25 12 18 29 18 44 44 37 35 354 66 75 46 70 64 35 27 14 351 26 19 31 105 87 94 125 154 154 132 113 116 127 127 129 175 190 140 76 23 339 283 257 266 144 199 210 217 230 229 220 213 205 207 214 215 212 214
9 15 16 18 21 24 30 37 53 85 125 141 152 144 58 85 48 17 286 325 4 350 337 291 310 319 305 319 9 349 338 24 358 8 18 342 54 80 64 37 6 350 82 74 99 55 43 40 11 354 10 6 3 101 120 118 123 141 141 123 125 135 145 149 151 179 179 104 71 7 319 249 259 276 146 170 181 224 245 245 241 239 219 209 212 215 216 218
8 15 18 19 16 19 24 29 40 57 130 125 96 56 63 74 67 318 297 308 316 314 315 306 309 310 318 25 4 336 5 78 7 359 7 10 37 35 21 24 14 357 59 81 70 42 87 82 9 356 341 347 0 37 66 85 84 73 7 358 129 137 147 153 162 153 133 112 85 74 252 236 239 62 88 87 41 297 284 265 247 250 244 224 219 222 221 222
12 15 22 23 19 21 26 34 42 47 96 104 74 55 70 73 231 184 338 294 299 310 306 316 312 312 25 42 8 0 12 37 19 11 26 35 44 24 352 360 8 357 337 74 65 45 84 76 337 298 300 329 2 18 348 12 78 76 317 305 92 13 28 116 109 60 91 113 117 169 254 274 271 49 10 328 295 276 283 273 247 248 255 243 235 233 229 228
14 16 23 22 23 29 35 48 52 59 93 96 77 57 70 47 266 78 17 335 336 321 307 307 320 347 15 0 354 13 2 4 8 4 39 54 60 38 8 343 2 4 359 48 74 104 94 82 334 295 291 341 15 22 10 11 87 161 228 55 56 352 57 114 100 42 303 193 136 217 264 255 246 205 241 286 287 275 272 265 242 237 246 249 245 240 236 234
3 17 22 20 27 31 40 67 68 70 81 82 71 60 78 332 332 333 351 354 316 304 312 329 5 352 357 346 350 355 345 342 3 3 25 55 47 24 4 350 11 13 5 4 46 42 88 105 32 326 356 6 354 355 15 30 22 239 131 113 114 5 5 115 124 118 221 193 112 292 268 280 285 191 150 198 358 11 250 265 261 245 241 244 245 242 239 239
357 16 22 20 26 30 36 67 84 68 70 70 69 86 101 289 10 311 329 353 297 295 326 35 21 353 319 342 359 348 338 340 359 11 28 18 30 19 357 351 15 17 1 332 0 31 42 99 93 284 3 356 324 309 3 43 43 57 103 119 155 196 121 119 123 143 169 152 113 207 269 279 251 223 58 6 12 24 289 246 247 243 241 241 244 244 241 241
5 19 20 16 22 39 45 59 92 85 72 67 73 87 57 290 331 318 337 350 271 291 352 29 20 20 33 6 349 346 352 10 359 354 29 9 21 36 19 358 317 353 356 335 5 11 286 86 111 197 193 211 306 21 352 37 49 78 111 114 323 344 40 87 62 302 188 143 134 151 241 241 201 207 306 307 326 335 310 281 255 249 249 247 249 250 248 247
17 50 17 10 16 50 63 69 72 70 68 59 70 87 238 290 320 331 358 359 280 322 3 10 359 15 30 2 343 356 8 31 12 6 36 8 0 54 40 18 326 332 339 323 48 6 285 44 101 149 187 200 53 30 2 349 10 57 101 83 89 65 346 115 89 7 354 152 155 129 138 117 83 151 251 291 314 318 300 292 288 279 275 269 260 257 257 257
53 78 14 8 18 53 91 69 54 55 64 93 68 84 219 317 336 351 9 5 17 26 28 28 22 29 16 352 22 6 355 32 25 22 53 25 18 51 27 10 347 323 320 318 20 10 338 45 74 55 36 54 50 22 347 333 337 338 352 6 49 62 236 158 105 89 1 7 263 117 127 110 65 154 228 282 304 295 286 279 281 288 294 293 286 276 272 270
72 81 14 11 25 64 84 67 46 48 87 84 72 103 144 331 327 0 16 12 355 357 27 59 48 41 36 358 8 359 353 32 19 9 44 21 9 18 347 350 348 322 321 24 27 0 357 73 71 57 31 25 17 18 305 275 287 291 316 1 5 330 253 317 126 148 129 61 267 267 100 108 123 168 221 256 280 281 277 270 275 290 304 311 312 307 296 290
69 68 25 19 54 78 79 77 44 37 66 71 109 127 110 310 345 17 20 19 358 331 27 53 23 30 44 9 338 354 0 27 27 10 27 358 353 359 338 348 354 336 328 80 127 6 5 78 73 80 58 265 225 161 172 239 258 255 251 85 265 299 1 339 33 127 142 163 220 230 141 139 142 148 227 258 277 281 280 277 277 291 308 314 315 314 310 305
72 63 42 38 96 96 69 101 120 76 103 127 96 81 81 65 33 23 13 13 14 14 54 59 25 31 42 1 357 5 338 13 62 15 6 27 355 348 346 358 9 4 0 21 350 337 333 117 105 127 130 142 180 181 187 211 235 253 43 52 357 45 76 82 74 97 185 164 353 254 154 134 110 117 228 259 283 287 282 280 282 295 305 309 314 317 313 308
84 63 45 47 79 114 97 117 134 130 149 143 104 58 31 76 48 28 42 52 41 51 84 86 63 54 72 3 43 22 351 13 59 30 336 304 310 327 352 7 16 12 12 359 330 331 25 65 346 168 138 131 141 156 160 154 160 140 15 212 207 82 336 294 117 204 215 136 150 248 150 95 112 187 245 250 268 286 282 285 293 300 303 309 321 321 316 312
134 81 40 47 68 85 92 105 120 122 145 155 115 71 55 93 49 25 42 62 56 57 72 82 65 200 162 132 61 33 13 12 35 85 42 326 302 316 332 351 13 11 354 326 348 33 112 80 32 351 55 49 62 67 21 26 127 159 182 197 206 207 312 288 240 272 134 137 185 238 266 346 255 215 228 223 224 265 288 298 306 309 308 313 317 316 316 319
129 103 13 61 67 76 84 94 105 110 136 165 134 136 137 110 65 41 44 42 51 55 74 72 45 50 149 332 108 70 19 5 29 59 22 325 284 294 304 305 8 10 0 267 11 67 146 78 54 36 13 3 9 26 2 358 81 165 167 172 199 205 195 238 263 323 134 148 208 234 184 253 269 187 204 222 242 279 292 299 307 311 313 316 318 319 323 328
104 117 112 132 118 80 81 101 116 111 108 114 106 100 126 117 139 111 76 57 56 21 330 67 37 29 13 331 99 89 3 8 36 34 343 337 309 311 315 205 10 17 47 134 21 44 155 65 60 281 22 11 339 346 334 333 24 336 233 197 203 194 191 215 242 219 204 219 355 88 174 239 267 274 262 260 274 285 288 293 299 306 315 321 322 322 325 328
109 116 107 112 112 104 108 127 128 115 97 99 110 94 160 144 132 98 44 312 69 19 350 47 19 4 4 312 248 73 19 18 39 32 324 347 330 335 5 159 336 12 31 55 26 37 127 89 98 166 78 50 17 8 331 284 1 285 249 223 212 207 214 236 272 273 247 271 310 129 252 270 271 269 276 284 287 282 281 288 296 305 313 314 314 318 322 327
133 129 123 113 96 91 103 121 129 112 85 109 110 93 170 152 144 141 72 351 101 28 350 92 110 6 8 302 138 74 57 25 28 42 156 314 332 347 15 45 309 350 13 35 0 346 351 97 119 177 148 69 38 31 47 72 85 269 255 222 202 209 234 249 263 245 242 273 275 231 269 279 266 252 270 280 283 277 274 283 296 306 311 308 312 320 325 330
163 160 143 125 101 76 101 115 123 108 108 154 140 161 182 181 159 143 92 26 61 4 342 133 140 134 38 47 63 71 69 60 64 76 97 66 47 43 31 48 311 324 357 24 348 343 4 102 136 208 188 89 34 11 15 12 273 265 270 233 193 186 213 223 217 205 201 206 174 175 246 269 227 225 276 274 271 273 274 283 297 306 310 310 315 321 326 331
160 154 152 137 103 98 159 125 352 137 140 98 126 154 169 163 160 151 103 46 63 41 102 146 142 129 49 51 63 88 110 101 103 104 108 104 88 85 88 78 52 5 0 10 2 6 10 121 134 313 265 109 14 346 325 302 266 208 287 217 178 185 213 223 226 225 214 194 163 176 208 163 114 281 289 281 277 285 292 298 304 307 310 313 317 320 324 326